User: anonymous   Login
Location: Zlin
(49.2330°N, 17.6670°E)
Time: 07:42:23
(UTC+01:00)
Language:

ISS - Orbit

View from above orbital plane
View from above orbital plane
View from above satellite
View from above satellite

Ground track
Ground track

The orbit data is extracted from the following two-line orbital elements,

1 25544U 98067A   17019.56330575  .00016717  00000-0  10270-3 0  9032
2 25544  51.6423  59.2275 0007538  96.8035 263.3976 15.54051194 38638
Epoch (UTC): 19 January 2017 13:31:09
Eccentricity: 0.0007538
inclination: 51.6423°
perigee height: 400 km
apogee height: 410 km
right ascension of ascending node: 59.2275°
argument of perigee: 96.8035°
revolutions per day: 15.54051194
mean anomaly at epoch: 263.3976°
orbit number at epoch: 3863

The dashed part of the orbit path shows where the satellite is in the earth's shadow,  

DLR